Wind_Speed
42 42 43 43 44 48 49 48 46 43 43 42 43 47 50 53 54 52 52 53 50 47 45 41 48 56 56 59 64 61 57 61 65 64 62 63 63 61 59 57 56 54 52 50 47 45 51 56 54 49 46 44 44 46 47 47 46 45 43 42 43 42 40 39 38 37 35 34 33 32 32 32 31 31 31 31 32 32 31 31 32 32 32 31 30
42 41 43 44 45 47 50 50 47 44 44 43 42 44 47 51 54 53 52 53 51 49 47 43 45 52 56 59 64 62 59 61 65 66 64 63 64 63 62 60 58 56 55 54 50 47 53 57 54 50 47 44 45 47 47 48 47 46 45 44 44 44 41 39 38 38 38 37 36 34 33 32 31 31 32 32 33 32 32 32 33 33 32 31 30
42 42 44 45 45 47 50 51 48 45 45 44 42 42 44 48 54 54 52 52 50 49 49 44 43 51 57 60 63 62 60 61 65 67 66 64 65 66 65 64 61 59 59 57 54 52 52 54 53 51 49 48 48 48 48 48 48 47 46 45 46 45 44 42 40 39 38 38 38 37 36 34 33 33 33 33 34 33 33 33 33 33 32 30 29
42 42 44 47 47 48 50 51 49 46 44 44 43 40 40 44 52 54 53 52 49 47 50 48 46 53 59 60 62 64 62 62 65 68 67 64 65 68 68 66 63 62 61 57 54 54 53 52 53 53 52 51 51 51 51 50 49 48 47 47 47 47 46 44 41 40 39 39 39 40 39 37 36 35 36 36 35 35 34 33 34 33 31 30 30
42 42 44 47 48 49 51 52 50 47 44 44 42 40 37 39 47 52 52 53 49 44 50 53 49 52 60 61 61 64 64 64 64 67 68 66 65 68 69 69 66 64 62 57 54 54 52 51 53 55 54 54 53 53 53 52 50 49 48 48 48 48 47 46 43 42 41 41 41 41 41 40 39 39 38 38 37 36 35 35 34 33 32 31 31
38 41 44 47 49 50 51 53 52 48 45 44 43 40 36 35 42 48 50 52 50 43 47 57 54 50 58 63 61 63 66 66 65 65 67 66 65 66 69 69 66 63 61 58 56 54 51 49 51 54 55 55 56 55 53 52 51 50 49 49 48 48 48 47 45 44 44 43 42 41 41 40 40 40 41 40 39 37 36 36 35 34 34 33 32
34 37 41 45 48 49 50 53 53 50 45 46 45 41 36 34 37 44 48 50 52 46 44 53 56 51 55 62 62 63 67 68 66 65 66 66 66 66 67 66 63 61 61 59 57 56 53 51 51 52 54 54 55 56 55 53 51 50 50 49 49 50 49 47 46 46 46 45 43 42 42 41 41 40 41 41 41 40 38 37 36 35 35 34 33
36 38 40 42 46 48 49 51 54 52 47 46 47 42 36 33 34 39 45 49 51 49 44 48 55 54 54 60 62 62 66 70 67 64 65 67 66 65 65 64 61 60 60 58 57 55 53 53 53 53 52 52 52 54 55 53 50 49 50 50 50 51 50 49 47 46 47 46 45 44 43 44 43 42 41 42 44 43 40 38 36 35 34 34 34
36 39 42 44 46 48 49 51 54 54 49 47 49 44 36 33 34 37 43 47 49 48 45 47 55 58 56 60 63 61 64 70 69 65 65 67 66 63 61 61 60 61 60 57 56 55 54 53 53 51 50 50 50 50 52 52 50 48 48 50 52 52 51 51 49 47 47 47 47 46 45 46 45 43 43 42 41 39 38 38 38 37 37 36 36
40 40 42 45 48 49 50 52 55 56 52 48 49 45 37 34 35 37 42 45 45 47 46 47 54 61 60 62 66 63 62 68 70 66 64 66 67 64 59 58 59 60 60 58 56 56 55 53 52 50 49 48 49 50 52 52 50 48 47 48 50 52 53 52 50 48 47 47 48 47 46 46 44 43 42 39 37 36 37 38 39 39 40 40 39
46 45 44 45 49 51 51 52 56 59 55 50 49 46 40 37 36 37 41 43 43 45 47 48 54 62 61 61 65 65 63 68 70 68 65 64 65 65 61 59 59 60 59 58 57 56 55 53 52 51 49 49 49 51 53 53 51 50 49 48 49 52 53 53 52 50 49 48 47 46 45 44 43 41 40 39 39 39 38 39 40 40 41 40 40
48 48 46 45 48 51 52 52 55 60 57 51 49 47 43 40 38 37 40 43 42 44 47 48 53 61 60 58 63 65 64 66 67 67 67 64 63 65 64 62 62 63 62 60 57 56 55 54 53 52 51 49 49 49 52 53 52 51 51 50 50 52 53 52 51 50 50 49 49 48 46 45 43 42 42 41 39 38 39 40 41 41 41 40 39
49 48 46 44 45 48 51 51 51 56 57 51 48 48 44 41 38 36 39 43 42 42 46 48 53 60 59 56 61 64 64 64 64 65 67 66 64 64 64 65 65 64 65 63 59 57 56 54 53 53 52 50 49 49 50 51 51 52 52 52 53 54 54 53 51 50 50 49 50 49 48 47 46 44 42 40 39 39 41 42 43 42 41 41 40
49 48 45 41 41 43 48 50 48 49 53 51 48 47 44 40 37 35 39 43 42 41 44 47 53 61 59 56 62 65 64 64 63 63 66 67 66 64 64 66 67 66 66 65 62 59 58 56 55 54 53 52 51 50 50 50 51 53 55 55 56 56 56 56 55 54 52 52 51 48 47 47 46 41 39 40 40 39 40 41 41 41 41 42 41
49 48 45 40 38 39 44 47 45 44 46 48 48 46 42 38 35 34 38 42 42 40 42 46 54 60 57 56 63 65 64 65 64 63 64 65 65 65 64 65 67 68 67 66 64 61 59 58 58 56 55 54 52 51 51 51 52 54 56 57 57 58 58 58 57 56 56 55 52 49 46 46 45 42 41 40 39 38 38 39 39 41 42 43 43
50 48 47 42 37 37 39 42 41 39 41 45 46 44 40 37 35 34 37 41 41 40 40 43 53 58 54 54 64 67 63 62 63 63 63 62 61 63 65 65 67 69 68 67 65 63 60 60 60 58 56 53 52 51 50 51 53 55 57 58 58 58 59 59 58 57 57 56 53 51 48 46 46 46 45 43 41 40 41 42 44 44 44 45 44
50 49 48 44 38 35 35 36 37 36 39 43 44 41 38 36 35 36 37 38 39 39 38 42 50 56 54 54 63 69 65 61 61 63 63 62 61 63 65 66 68 69 68 68 67 65 62 61 61 60 57 54 52 51 50 50 51 53 56 57 57 58 58 58 58 59 58 56 54 53 52 51 51 50 47 45 44 44 45 47 47 46 46 46 44
47 48 48 45 39 34 32 33 34 35 38 41 41 39 37 36 36 36 36 36 36 36 38 42 49 55 56 56 60 65 65 62 62 62 62 61 62 64 65 67 69 70 69 68 68 67 66 64 62 61 60 56 54 53 51 50 50 51 53 55 56 58 59 59 60 61 60 59 58 57 56 55 54 52 49 47 46 46 47 47 46 46 47 47 44
44 46 47 45 39 31 29 31 33 35 38 40 40 38 37 37 37 36 35 35 34 33 36 43 50 55 57 57 58 61 62 62 62 63 62 60 60 62 64 67 69 71 70 70 69 69 70 68 64 62 61 58 56 55 54 53 52 51 51 52 54 57 58 58 58 60 61 61 60 59 59 58 56 53 50 47 47 47 47 47 47 47 47 46 46
41 43 46 45 37 28 26 29 33 35 37 39 39 38 38 38 38 36 35 35 33 32 36 43 50 55 57 57 58 60 62 65 66 64 62 61 60 60 63 66 69 71 71 71 71 71 72 71 68 64 63 61 59 58 56 55 54 52 51 53 54 53 53 54 55 57 60 62 61 60 60 60 58 55 52 49 48 49 50 50 49 48 47 47 48
38 40 43 41 32 24 23 28 33 35 37 39 38 38 37 38 38 36 35 34 34 34 37 43 49 54 56 57 57 60 64 67 67 65 63 61 59 60 63 66 68 70 71 73 73 72 73 73 71 67 64 62 61 59 58 56 55 54 54 56 55 51 49 50 53 55 58 61 63 63 62 62 61 58 55 52 51 52 53 52 50 48 48 50 50
33 35 40 36 25 19 22 27 32 33 35 36 36 35 36 38 39 37 35 34 35 36 38 42 48 53 56 58 58 61 65 68 68 66 64 61 60 61 62 64 66 67 70 73 75 74 73 73 74 72 67 63 62 61 58 57 56 56 56 55 52 48 47 47 49 53 57 60 63 65 65 64 63 61 59 55 53 53 54 53 51 50 51 52 51
29 32 34 28 17 14 18 23 26 28 29 31 33 33 34 37 39 38 37 35 35 37 38 41 46 51 55 58 60 62 64 68 69 67 63 61 61 61 61 61 63 65 69 73 76 77 75 73 74 75 72 67 63 62 60 58 58 58 58 55 52 50 49 48 49 52 56 59 62 65 67 66 64 62 60 57 54 54 56 55 55 54 54 54 52
25 27 26 19 10 9 13 17 21 24 26 29 31 32 34 36 38 38 37 35 35 38 39 41 44 49 54 58 61 64 66 69 71 70 65 63 63 61 59 59 61 62 66 70 74 76 77 75 73 74 75 72 66 63 62 61 61 61 59 56 55 54 52 53 54 54 55 58 61 63 66 66 65 63 60 57 54 55 58 59 58 57 56 55 53
20 21 18 12 6 5 9 13 17 20 22 25 28 29 31 33 35 36 36 35 37 40 42 43 44 48 53 57 59 62 66 69 72 72 69 65 64 62 59 57 59 60 63 67 71 74 76 76 73 71 75 76 70 66 65 64 64 63 58 54 55 58 58 57 57 56 56 58 59 60 61 63 63 61 59 58 57 60 63 63 61 59 57 56 55
16 14 13 10 5 4 8 10 13 17 19 22 24 25 26 28 30 33 35 36 38 41 44 45 45 47 51 56 59 61 63 67 71 73 72 68 65 62 59 56 56 58 59 62 67 70 73 74 72 69 70 73 71 67 66 66 65 63 59 54 54 59 62 62 60 58 57 58 58 59 59 58 59 60 61 62 63 64 65 64 62 60 58 56 55
14 9 8 9 6 4 8 11 13 15 17 17 18 20 22 24 27 30 33 36 40 42 44 45 46 48 51 56 60 59 57 61 68 71 71 70 66 62 57 54 54 56 57 60 63 67 70 72 72 69 67 68 68 66 66 67 66 64 62 60 58 60 63 65 63 61 60 58 58 58 58 57 58 61 62 64 64 64 65 66 64 61 58 56 55
16 9 6 6 6 5 7 10 13 16 16 14 14 16 19 23 26 27 29 34 39 43 44 45 48 51 53 57 62 59 53 54 63 69 70 70 67 62 57 54 53 55 57 59 61 63 64 66 68 69 69 68 68 67 68 70 70 68 67 66 65 64 64 64 63 62 59 57 57 57 58 60 62 63 63 63 63 64 66 67 65 62 59 57 56
18 12 7 4 3 4 6 10 14 17 17 15 14 15 16 20 24 26 27 30 36 42 46 47 48 51 55 58 61 61 57 55 58 62 64 65 64 62 58 55 53 53 56 59 61 61 61 62 65 69 71 72 71 71 73 75 74 72 71 70 70 69 66 64 64 63 61 60 59 57 57 59 62 64 65 64 63 64 67 68 66 62 59 58 58
19 13 9 5 3 4 7 11 15 18 18 17 16 16 15 16 20 24 26 29 33 38 45 49 49 51 54 57 59 60 59 56 53 53 55 57 59 59 59 56 53 53 56 60 62 62 63 65 66 68 71 72 72 73 74 76 75 75 73 71 70 69 65 61 62 64 66 65 63 60 58 58 60 63 67 66 63 63 67 68 66 64 61 59 60
20 15 12 8 4 5 8 11 15 18 19 20 19 18 16 16 18 21 24 27 31 35 41 48 51 52 53 56 57 57 56 54 52 51 52 54 56 58 59 57 54 53 55 59 61 63 66 69 71 71 71 72 73 74 75 75 74 75 75 72 69 66 63 60 62 66 69 68 66 63 61 61 61 63 67 67 64 62 66 69 68 65 63 61 61
25 20 17 12 7 6 7 10 14 17 19 20 20 20 19 18 17 19 22 25 29 33 38 44 49 52 53 55 56 56 55 54 54 54 54 54 56 56 56 54 51 50 51 55 59 62 66 71 74 75 74 73 73 75 77 75 74 74 76 77 73 69 66 65 66 67 68 67 66 64 64 65 64 64 67 69 65 63 67 70 69 66 63 62 62
31 27 24 19 13 10 10 11 14 17 19 20 21 22 22 20 18 19 22 23 26 30 36 42 46 48 49 52 53 54 55 55 54 54 53 53 53 53 50 48 46 46 48 51 54 57 62 68 72 74 75 73 73 74 76 76 74 73 74 75 73 70 68 67 66 66 66 65 65 65 66 68 67 66 70 71 65 62 66 69 68 66 64 63 64
33 30 28 25 21 17 14 14 16 18 20 21 22 22 21 20 19 19 22 24 25 27 32 39 45 46 45 45 47 49 51 53 53 53 53 52 51 49 47 46 45 46 47 49 51 54 58 64 68 71 72 72 72 73 73 72 71 70 70 70 70 68 67 66 66 66 66 67 67 66 67 68 69 70 72 70 65 63 67 69 68 67 65 64 64
34 30 26 24 23 21 19 17 17 19 20 21 21 21 21 21 21 21 22 25 27 27 28 34 42 46 44 42 41 42 45 47 50 51 52 52 50 49 48 48 49 50 50 51 52 54 56 60 64 67 69 70 71 71 70 68 67 67 68 68 68 67 67 66 67 67 67 68 67 66 67 69 70 70 68 66 63 64 68 70 70 68 66 64 64
37 33 28 23 21 19 18 16 16 17 19 20 21 22 22 22 22 22 23 25 27 27 27 29 35 42 45 43 42 41 42 44 46 48 50 49 48 49 51 52 53 53 52 52 53 54 55 57 60 63 65 67 68 68 67 66 65 65 65 66 66 66 66 67 67 67 67 67 66 66 66 68 67 65 63 62 62 65 68 70 69 67 65 64 64
42 37 33 27 21 18 16 14 12 12 15 17 19 20 20 20 20 21 23 25 25 27 28 29 32 38 42 44 43 41 40 39 41 42 43 43 44 47 51 53 53 53 52 52 52 53 54 55 57 59 61 62 63 63 62 62 62 62 63 64 65 65 65 65 65 65 66 66 65 64 64 63 61 59 60 61 63 66 69 69 67 66 64 64 64
48 42 37 31 25 19 15 13 12 10 8 9 12 14 16 17 19 20 22 24 25 26 27 29 30 33 37 41 42 41 40 39 39 40 40 41 42 46 49 51 52 52 52 52 52 53 54 55 56 57 58 59 59 59 59 59 60 61 62 62 62 62 63 63 63 63 64 64 63 61 60 59 58 58 59 61 64 68 69 69 67 66 66 66 66
51 47 41 35 30 24 18 14 11 9 7 5 1 4 6 9 12 15 18 20 23 24 26 28 29 31 33 37 39 39 40 41 43 44 45 46 48 50 52 53 53 52 52 51 52 53 55 56 57 58 59 59 59 59 59 58 59 60 61 61 62 62 63 64 64 64 63 62 60 58 58 58 58 58 59 62 65 67 68 68 68 68 69 68 68
49 49 47 43 37 32 25 18 12 9 9 11 13 13 12 11 10 11 12 15 18 21 23 26 27 28 30 33 35 36 37 39 42 45 48 49 50 51 52 54 55 54 53 52 52 53 55 57 57 58 58 59 58 58 57 57 57 58 60 61 62 63 65 66 65 63 61 59 58 58 59 58 58 59 61 63 65 66 66 67 68 69 69 69 68
45 46 48 47 44 39 32 25 20 16 14 14 15 17 18 17 15 14 13 13 14 15 16 18 20 23 25 27 28 30 32 34 37 41 44 47 48 49 50 52 53 54 53 53 53 54 55 57 57 57 57 57 56 55 55 55 56 58 60 62 63 65 66 64 61 59 58 58 58 59 59 59 60 61 62 63 63 64 64 65 67 68 69 69 70
41 42 43 44 45 43 38 33 29 25 21 17 16 15 16 16 16 16 15 15 14 14 14 14 14 17 20 22 22 24 25 27 29 32 35 39 41 43 46 48 50 50 50 50 50 52 53 55 55 56 56 55 54 53 54 55 56 56 58 59 60 61 61 59 57 57 58 59 60 61 61 63 64 65 64 64 63 62 62 63 65 68 69 70 71
38 38 39 40 41 42 42 39 34 30 27 25 23 21 18 16 15 15 15 16 16 16 15 15 14 14 15 16 17 18 20 20 21 23 26 28 31 33 36 39 41 43 43 44 44 46 48 49 50 51 52 52 52 52 53 53 54 53 52 52 52 52 50 50 53 57 60 62 63 64 65 66 66 64 64 64 63 63 63 63 65 67 68 69 70
34 34 35 35 36 37 38 39 38 35 33 30 29 27 25 22 20 19 17 17 17 17 17 16 16 15 14 14 13 14 15 15 16 16 17 19 21 23 26 28 31 33 35 36 37 39 41 43 44 45 47 48 49 49 50 50 50 51 51 50 49 47 45 46 51 57 62 64 64 65 66 66 65 63 62 63 64 64 64 64 63 62 62 64 66
31 31 31 31 31 31 32 33 35 36 35 33 31 30 28 27 26 25 23 22 20 19 17 16 15 15 14 14 15 15 14 14 14 14 14 14 14 15 16 18 21 24 26 28 30 33 35 37 38 40 41 43 44 44 44 45 46 48 50 49 48 46 45 47 52 56 58 58 57 57 59 60 60 59 58 58 58 58 58 58 58 59 60 62 64
29 28 28 28 28 27 27 27 28 29 30 32 32 32 31 29 28 27 26 25 24 23 21 19 17 15 13 13 12 13 13 13 13 13 13 13 13 13 13 14 15 16 19 21 22 25 27 29 31 33 34 36 37 37 37 38 40 42 44 45 44 43 43 45 47 47 47 45 45 45 47 48 50 50 50 50 51 53 55 57 59 60 61 61 61
27 27 26 26 26 25 24 24 23 23 23 24 26 27 28 29 29 28 27 26 25 23 22 21 19 18 17 15 14 12 11 10 9 8 9 9 10 10 11 12 13 14 15 16 17 18 19 21 22 24 25 27 28 29 29 29 30 32 34 35 36 37 38 39 40 40 39 38 38 39 40 42 44 46 48 50 52 54 56 57 58 57 55 53 53
25 25 25 25 24 23 23 22 21 20 20 19 19 20 21 22 23 23 24 24 24 23 23 22 21 20 19 18 17 16 15 13 12 10 8 7 6 6 6 7 8 10 11 13 15 16 17 17 18 18 19 20 21 22 23 23 24 25 26 27 29 31 32 34 35 36 37 38 38 39 40 42 44 46 48 49 51 52 53 54 54 52 51 50 51
22 22 22 22 22 22 21 21 21 20 20 19 18 18 17 17 17 17 18 18 19 19 19 20 20 20 19 19 18 18 17 16 15 14 13 11 10 9 8 7 6 6 6 8 9 11 14 16 16 17 18 18 19 19 20 20 21 22 23 24 26 27 29 31 32 33 34 35 36 37 39 40 42 44 45 46 47 48 49 49 49 49 50 50 51
21 21 20 20 20 20 20 20 20 19 19 19 18 18 18 18 17 17 17 17 16 16 16 16 17 17 17 17 17 17 16 15 14 13 13 12 12 11 11 10 10 9 9 8 8 8 9 10 12 13 15 16 17 18 18 19 20 21 21 23 24 25 26 28 29 30 31 32 33 35 36 38 39 40 41 41 42 43 44 45 46 47 48 49 50
19 19 19 19 19 18 18 18 18 18 17 17 17 17 18 18 18 18 18 17 16 16 16 15 15 15 15 15 14 14 14 13 12 12 11 11 10 9 9 9 8 8 7 7 7 8 8 8 8 10 11 12 13 15 16 17 18 19 20 21 23 24 25 26 27 28 29 30 32 33 34 35 35 36 37 38 39 40 41 43 44 45 45 46 48
Wind_Direction
265 267 266 265 266 266 265 266 265 266 270 272 269 263 256 252 249 247 243 237 236 240 239 230 223 220 218 216 214 215 216 216 216 216 217 216 215 215 216 216 216 217 217 215 213 209 199 194 200 206 208 208 207 205 205 204 204 205 206 205 204 202 198 197 199 199 201 207 211 212 212 214 215 215 213 213 213 214 214 213 213 212 212 213 213
261 263 263 261 261 263 264 264 263 263 266 269 270 266 259 253 250 248 244 237 233 238 237 228 225 225 220 216 214 214 215 216 216 215 216 216 215 214 216 215 215 215 216 215 213 207 200 199 204 207 208 208 206 205 205 206 205 204 204 203 202 201 199 201 204 203 202 205 208 212 214 216 217 216 214 213 213 214 216 217 217 214 212 212 212
258 259 260 259 257 258 262 263 262 260 263 267 270 269 263 256 252 249 245 237 232 237 236 226 227 229 220 215 214 214 215 217 216 215 215 215 214 214 215 216 214 212 214 215 214 211 207 205 207 210 209 207 205 204 205 207 206 205 204 203 203 203 204 206 208 209 209 207 207 210 213 214 217 217 216 215 215 216 217 218 216 213 212 212 212
253 255 256 256 255 255 257 261 262 259 258 262 267 269 264 258 254 251 246 237 231 236 236 226 225 227 219 212 214 214 214 216 215 215 215 215 215 215 215 216 215 213 213 214 213 212 211 210 211 212 210 208 205 204 204 205 206 205 205 205 205 206 208 209 210 211 212 211 210 212 213 212 214 217 218 217 217 217 217 216 214 213 214 215 215
250 251 253 254 254 253 253 257 260 258 256 258 262 265 263 258 256 253 247 238 231 233 233 225 221 222 217 212 214 215 214 214 214 213 213 214 216 216 216 216 216 215 213 210 209 209 211 212 213 214 212 210 207 205 205 205 206 206 207 208 208 209 210 212 212 213 213 213 213 215 216 214 213 215 218 218 217 216 216 216 216 217 218 217 216
259 252 250 252 254 253 252 254 257 257 255 254 256 259 259 257 256 254 248 239 232 231 230 222 217 219 217 212 213 215 215 214 215 213 212 213 215 217 218 217 216 214 210 208 207 209 211 212 212 213 213 212 210 208 207 207 207 209 210 210 211 211 213 214 215 216 216 215 215 216 219 219 217 216 217 217 217 217 217 217 217 218 219 218 218
274 264 256 253 254 254 252 251 254 255 253 252 252 253 254 253 253 252 248 240 234 233 232 222 214 213 213 209 210 215 215 214 215 214 212 212 214 216 217 217 215 211 209 209 211 213 215 213 212 214 215 216 216 215 213 211 212 213 213 213 213 212 214 216 218 219 217 216 216 216 218 219 219 218 218 218 217 216 217 217 218 219 219 219 220
283 276 270 263 258 257 255 252 252 252 250 249 249 248 250 251 251 249 245 240 235 234 234 225 212 207 210 210 210 213 214 213 214 213 211 211 212 214 216 216 214 210 210 213 215 216 216 214 215 218 219 220 221 220 218 217 217 216 214 213 213 213 214 217 219 220 219 218 217 218 218 218 218 218 218 218 217 216 215 215 217 219 222 223 224
294 285 278 271 266 261 257 254 254 252 248 246 246 246 247 250 251 247 242 238 236 234 234 228 214 206 208 211 209 211 213 212 213 212 211 210 210 212 214 215 214 212 212 215 217 217 216 215 215 218 220 221 222 221 219 220 221 221 217 214 213 213 215 217 219 220 220 220 219 219 219 218 218 218 218 217 217 217 216 216 216 218 221 225 226
307 297 284 274 268 264 258 255 255 253 248 244 246 245 245 250 251 246 241 237 236 235 234 228 215 206 205 207 206 208 211 211 212 212 210 211 210 211 212 213 214 213 213 215 217 216 215 215 215 216 218 221 224 223 221 221 222 221 220 219 217 215 215 217 218 218 220 221 222 221 221 220 220 221 222 221 220 220 219 218 217 218 219 222 223
310 305 294 279 269 264 259 254 252 253 248 242 244 245 245 250 251 245 241 237 235 236 233 226 215 207 206 207 205 206 210 210 212 213 212 211 211 211 211 211 213 215 215 216 217 216 215 216 215 216 218 220 223 223 222 221 219 218 220 222 221 219 218 217 217 217 219 222 224 225 225 224 225 225 226 225 224 224 222 220 218 219 222 223 223
311 309 303 288 273 264 260 255 250 249 247 241 241 243 244 248 249 244 241 236 235 237 233 225 215 205 204 208 207 207 209 210 212 213 212 212 210 210 211 211 212 215 215 216 217 217 217 217 216 217 219 220 221 221 220 219 218 218 218 219 220 221 221 221 222 222 221 222 223 225 226 227 229 229 228 227 227 227 226 223 220 220 223 225 227
313 312 308 296 281 267 260 257 252 247 244 239 237 240 242 245 245 241 238 234 234 235 232 228 217 204 200 206 207 206 208 210 212 212 212 212 211 211 212 213 213 214 214 215 217 217 218 219 218 218 220 220 219 218 217 216 217 218 219 218 219 221 222 223 224 225 226 226 225 224 225 227 230 231 231 230 231 230 228 224 221 220 221 224 226
315 315 312 301 287 271 260 258 255 249 242 236 234 236 238 241 241 236 233 232 231 230 230 229 217 202 198 203 205 205 207 210 211 211 211 213 213 213 214 214 214 215 215 214 217 218 217 219 220 219 219 219 218 216 215 215 216 217 218 218 219 220 222 222 222 223 224 226 228 228 228 230 231 231 232 232 233 233 232 229 227 223 221 222 223
316 315 313 304 290 275 263 258 256 250 240 232 230 232 234 236 235 230 228 229 229 226 226 225 212 200 198 203 205 205 207 208 209 210 211 212 213 215 215 214 214 215 215 215 217 219 218 218 220 220 220 221 220 217 216 215 216 217 218 219 220 221 222 222 222 222 222 224 226 227 228 231 233 234 234 234 236 237 235 233 230 226 222 221 222
313 315 315 310 295 280 268 260 255 246 233 228 227 226 228 230 227 223 224 226 227 224 223 220 209 198 197 205 207 206 207 208 208 209 209 209 210 213 215 214 213 213 215 215 216 219 219 218 219 220 220 220 222 222 220 218 217 218 220 221 222 223 224 224 222 223 224 224 225 225 225 228 230 232 232 233 235 236 232 227 225 223 221 221 223
310 314 316 313 300 285 272 259 248 235 224 222 222 220 222 223 219 218 221 223 225 224 220 216 207 199 197 204 209 208 208 209 209 209 210 210 211 212 213 213 212 212 214 215 217 219 219 219 220 220 220 219 220 223 225 223 221 221 222 223 223 223 224 225 223 223 224 225 225 225 225 225 226 228 228 229 232 233 229 225 223 221 221 222 223
309 311 316 315 302 285 271 254 238 223 216 216 217 216 217 216 214 215 218 220 222 223 220 214 207 202 200 203 208 210 210 210 209 210 211 213 213 213 213 213 213 214 214 215 217 219 219 219 219 220 220 220 220 222 225 226 225 224 224 224 223 222 223 224 223 223 223 224 224 223 223 224 225 225 224 224 228 229 227 225 225 223 222 222 222
310 311 316 317 305 285 266 247 227 214 211 213 213 213 213 211 210 212 215 217 218 219 219 215 208 203 200 201 205 209 212 213 213 212 213 213 213 213 213 213 215 217 217 216 216 217 219 219 219 219 219 220 221 223 225 227 228 227 227 227 226 224 223 223 224 224 224 224 224 223 223 224 225 225 223 222 224 226 224 223 224 225 224 223 222
312 312 317 318 307 285 260 237 218 208 208 210 210 211 211 209 209 211 213 215 217 216 216 215 210 206 204 203 203 204 209 214 215 213 212 212 213 214 215 215 216 217 218 217 215 216 217 218 219 220 219 218 219 223 226 228 229 229 229 231 231 228 224 223 225 226 226 226 226 225 225 225 225 226 225 223 221 221 220 220 222 222 222 224 225
314 314 319 319 307 282 251 225 209 204 206 209 209 209 208 208 210 212 213 214 216 215 214 214 212 209 209 210 208 206 209 212 213 213 212 212 214 216 216 217 218 217 218 218 216 216 216 217 218 220 221 219 217 220 224 227 229 229 230 231 233 232 229 227 227 227 227 227 227 227 227 226 226 227 227 226 223 219 218 219 220 220 221 223 226
317 317 321 320 306 273 239 215 204 203 206 211 212 210 208 209 212 214 214 214 216 216 215 214 214 212 212 213 214 214 215 214 213 213 212 212 216 218 218 219 220 219 219 218 217 216 217 217 218 219 221 221 218 218 222 225 226 228 229 231 233 233 233 233 232 230 229 228 228 228 227 228 227 227 228 228 224 219 219 220 220 220 222 224 225
321 324 326 321 301 257 226 208 200 202 208 214 216 214 211 211 213 216 218 218 218 219 218 217 217 217 216 215 216 217 218 217 215 213 212 214 217 219 221 222 223 222 221 219 218 218 218 218 219 219 220 222 221 219 222 225 226 226 228 230 231 232 233 234 234 234 233 231 229 229 228 228 228 228 228 228 225 221 221 222 222 222 223 225 227
326 331 333 321 291 231 203 197 197 202 209 213 214 214 213 213 215 218 220 221 220 220 221 220 220 220 219 219 218 218 218 218 218 216 215 216 219 221 223 225 226 226 225 222 221 220 219 219 220 220 220 222 222 221 223 228 228 227 228 230 230 229 230 232 234 235 235 234 232 231 230 228 228 229 229 230 229 225 223 223 224 224 225 226 228
336 341 342 327 295 199 176 185 194 199 207 213 215 215 215 216 217 219 222 223 221 220 220 222 222 222 221 220 221 220 219 218 218 218 217 217 219 222 224 226 228 229 229 227 225 223 221 219 220 221 221 221 222 223 225 228 228 226 229 231 229 227 228 232 235 235 235 235 234 233 233 231 230 230 231 231 229 226 223 223 224 225 227 228 229
352 356 352 339 315 186 170 181 195 202 208 214 217 217 218 219 220 222 224 223 221 219 219 220 222 222 221 220 220 220 220 220 219 218 219 219 220 223 225 227 229 231 231 229 227 226 224 221 220 221 222 221 222 223 225 228 227 226 227 229 229 228 229 232 234 234 235 237 237 235 235 234 231 230 231 229 226 223 222 223 225 228 229 230 230
360 10 356 338 318 233 199 197 204 211 215 220 221 220 221 223 224 226 226 222 220 219 218 218 220 221 219 218 217 216 217 219 219 218 218 220 221 223 226 228 230 231 231 230 228 227 226 223 221 221 222 221 221 222 224 227 227 225 225 227 229 231 231 232 234 235 236 239 241 240 238 235 231 230 231 229 225 222 222 223 226 229 230 231 232
356 6 8 344 326 292 252 234 225 221 225 237 243 237 233 231 230 231 230 223 218 217 217 216 216 217 217 216 214 211 209 214 217 217 218 220 221 224 227 230 231 232 231 229 228 227 224 221 220 221 221 220 219 220 221 223 224 224 226 228 229 231 233 233 234 234 235 237 241 242 240 235 231 229 230 229 226 223 223 223 226 229 230 230 232
354 356 12 7 333 299 276 263 250 239 240 253 262 256 249 243 237 235 234 228 220 216 216 215 214 214 214 213 211 208 206 208 212 214 216 220 222 224 228 232 234 234 230 227 226 224 220 217 218 220 220 220 219 219 219 220 222 224 227 229 229 230 233 232 230 230 232 234 237 238 239 237 233 230 230 229 226 224 223 224 226 229 230 230 232
355 352 359 2 334 282 265 263 262 257 257 265 269 262 258 257 248 238 233 230 225 218 215 215 215 214 213 212 209 207 204 204 207 209 213 217 221 224 228 233 235 234 230 226 224 223 220 217 216 219 220 220 221 221 220 220 222 225 227 228 229 230 232 230 228 230 233 235 237 237 237 238 237 234 233 231 228 225 224 225 226 229 230 230 232
354 352 349 346 330 290 267 262 265 265 266 272 275 268 261 262 257 243 232 229 229 225 219 216 216 216 216 214 211 208 205 202 202 205 209 214 218 222 226 231 234 233 230 227 225 224 221 218 217 218 220 222 224 223 222 223 225 226 226 227 229 231 231 229 230 233 235 237 240 240 237 237 239 238 236 234 231 227 225 225 226 228 230 230 232
352 351 346 336 316 287 266 260 263 267 269 273 275 272 266 260 252 242 235 229 228 229 226 221 217 217 217 216 214 211 208 205 205 206 209 213 217 221 225 229 232 233 232 230 228 227 225 222 219 218 219 223 225 225 225 228 230 228 226 226 230 233 234 233 234 236 238 240 242 240 236 234 237 238 237 235 232 229 227 226 226 228 230 231 232
351 349 343 335 319 292 267 255 256 262 267 270 270 271 270 265 252 241 237 232 229 229 228 224 220 217 216 217 216 215 212 210 208 210 212 215 218 221 224 227 230 231 232 231 231 230 228 225 223 221 222 225 227 227 228 230 232 230 228 229 233 237 238 237 238 240 242 244 243 240 236 234 234 236 236 234 232 229 228 227 227 229 230 232 233
353 347 342 336 327 310 286 265 256 257 262 267 269 269 268 266 259 247 239 234 231 229 225 222 220 219 218 217 217 218 217 214 212 211 213 215 217 220 222 224 226 227 229 230 230 229 227 226 225 225 226 227 228 229 231 232 232 232 233 235 237 239 239 240 241 243 244 244 242 239 235 234 236 236 234 232 231 229 228 227 227 229 230 232 234
358 351 343 335 329 319 303 281 264 258 258 260 263 263 263 262 260 253 242 235 231 228 222 217 216 218 219 218 217 217 218 217 214 212 212 213 215 217 219 220 223 225 226 226 226 226 225 225 225 225 226 228 229 231 233 234 234 234 235 237 238 239 240 241 242 243 242 242 240 237 234 235 238 238 233 230 231 230 228 227 227 228 230 233 235
5 1 353 341 332 326 316 296 273 259 254 255 257 259 258 256 254 248 240 234 229 224 218 213 212 214 217 218 218 216 215 215 215 216 216 216 218 220 220 221 222 224 225 225 224 224 224 224 225 225 227 229 230 232 233 234 234 234 236 237 239 240 241 242 242 241 240 239 237 236 236 238 238 236 233 232 232 230 229 228 229 229 231 234 237
12 10 6 358 347 337 331 321 302 276 261 258 259 255 246 239 236 233 230 227 222 217 213 211 211 213 215 215 214 211 208 207 209 212 215 217 219 222 224 224 224 226 227 228 227 226 225 224 224 225 227 228 230 231 232 233 234 235 236 237 239 239 240 241 241 240 239 238 236 236 237 237 236 234 234 234 232 230 229 229 230 231 233 236 238
16 15 15 12 5 355 345 339 334 325 300 271 254 241 228 218 214 213 213 212 209 206 204 204 207 209 210 209 205 201 198 197 198 199 202 205 209 216 221 222 223 225 227 228 228 227 227 226 225 225 226 227 228 229 231 232 233 234 235 235 236 237 237 238 238 237 237 236 235 235 236 236 235 234 234 233 232 231 231 231 230 231 233 235 237
17 19 20 20 18 14 9 1 356 1 10 20 58 185 184 185 187 191 194 196 196 195 195 195 196 198 200 201 199 195 192 192 194 197 199 202 207 212 216 218 220 221 223 225 225 226 226 227 227 227 227 227 228 229 230 231 232 233 233 233 233 234 235 235 234 233 233 233 234 234 234 234 233 233 232 232 232 233 234 233 232 232 234 236 238
15 19 22 24 25 26 26 27 29 37 52 65 72 80 91 104 121 141 158 171 180 185 187 189 189 190 191 194 195 194 192 191 192 195 199 202 205 207 210 213 216 217 218 220 222 223 224 226 227 228 228 228 228 228 229 229 230 230 231 231 230 231 233 234 232 231 231 232 232 232 231 231 231 231 231 233 234 235 236 235 234 234 235 238 240
12 15 20 24 28 30 32 37 46 55 66 75 78 78 80 82 87 97 111 128 142 155 166 175 180 185 188 190 191 194 196 196 195 194 197 200 202 204 207 210 213 215 217 218 219 220 221 223 224 226 227 227 227 227 227 228 228 229 230 231 231 232 232 232 231 230 231 231 231 230 230 230 230 231 232 233 235 236 237 237 236 236 237 239 241
12 13 15 20 26 30 34 39 45 52 60 70 77 81 82 82 84 87 92 98 105 113 125 139 154 170 181 186 187 189 194 199 201 201 201 201 201 202 203 206 210 212 214 215 216 217 219 220 222 223 225 226 226 226 227 228 229 230 231 233 234 234 233 230 229 230 231 231 230 230 230 230 231 232 233 234 235 237 238 238 237 237 238 240 242
14 13 13 15 19 27 33 38 42 47 53 59 65 71 76 82 89 93 96 101 105 108 115 122 131 144 160 171 176 178 181 187 195 202 206 207 206 205 204 205 207 208 210 211 213 215 216 218 220 221 223 225 225 226 228 230 232 232 233 234 234 234 233 232 231 232 232 232 232 232 231 231 232 233 233 233 233 234 235 237 238 238 239 240 241
14 14 15 15 16 20 27 34 40 45 50 54 58 63 67 72 78 82 88 96 102 108 115 121 126 134 143 149 155 162 167 171 178 187 196 203 207 208 208 207 207 207 207 209 211 212 215 217 219 220 222 224 225 227 229 231 233 234 234 233 233 232 231 231 231 231 232 232 233 232 231 231 232 232 231 231 231 232 233 236 239 241 243 244 246
15 15 16 17 18 19 21 27 33 41 47 52 56 59 61 64 67 70 72 75 79 84 91 98 106 117 128 134 139 144 150 157 164 173 182 190 197 203 207 210 211 211 210 210 210 211 213 216 218 220 222 224 225 227 229 231 233 234 233 232 230 229 228 228 230 231 232 232 232 230 230 230 230 230 230 231 232 234 237 240 243 246 249 251 252
14 16 16 17 19 21 23 25 27 32 39 45 50 54 57 59 60 62 64 65 67 69 71 75 79 85 94 106 118 127 134 141 149 159 168 175 182 190 196 202 209 213 215 216 217 217 217 218 219 221 223 224 225 227 228 229 231 232 232 230 228 226 226 227 228 230 231 231 231 231 231 232 232 233 235 237 239 242 244 246 248 250 252 253 254
10 13 16 18 20 21 25 27 28 28 31 36 41 46 50 53 56 58 60 62 64 65 66 68 71 74 77 81 87 94 102 113 126 141 155 165 174 183 190 196 202 205 209 213 217 221 224 225 225 224 224 224 225 226 227 228 228 229 229 229 228 227 225 224 225 225 226 228 229 231 232 234 236 238 240 241 243 244 245 246 246 247 247 248 249
9 10 13 16 19 21 23 26 28 29 31 33 35 38 40 44 47 50 53 56 58 60 62 64 67 70 73 75 78 81 85 90 95 104 116 129 145 162 180 196 205 209 211 211 212 215 219 222 224 225 225 223 223 223 223 223 223 224 225 225 226 226 226 225 225 225 226 226 228 230 232 234 236 238 239 240 240 241 241 241 242 241 241 242 243
6 8 10 12 14 17 20 23 24 26 27 30 32 34 36 37 39 41 43 44 45 47 50 52 54 58 62 64 68 73 77 80 85 91 96 100 107 114 122 131 147 167 185 199 207 212 214 215 218 221 223 223 223 222 222 222 222 223 223 224 225 226 226 227 227 227 228 228 230 231 233 235 237 239 240 242 242 243 243 242 242 241 241 241 242
1 4 7 9 10 12 15 18 19 21 23 26 27 29 30 32 33 36 37 36 35 35 35 36 37 40 42 46 51 56 61 66 71 76 80 85 90 96 100 104 111 117 124 135 149 165 180 191 198 204 210 214 217 218 219 221 223 224 225 227 228 229 230 231 232 233 234 235 236 237 239 240 241 242 243 243 243 243 243 242 242 242 243 244 245
357 360 2 4 7 9 10 12 13 14 16 18 20 22 24 25 27 29 30 30 31 32 33 32 31 30 29 30 32 34 37 41 46 50 54 59 63 68 74 78 83 91 99 107 117 128 139 152 163 173 183 192 198 203 207 211 213 216 219 221 223 226 228 229 231 232 233 235 236 237 238 238 239 239 239 239 239 240 241 242 242 243 244 245 245
Height
2870 2870 2870 2869 2868 2868 2867 2865 2865 2865 2864 2865 2865 2864 2865 2867 2867 2868 2870 2873 2877 2880 2883 2886 2891 2899 2906 2910 2914 2918 2923 2928 2932 2937 2942 2947 2952 2958 2962 2966 2969 2974 2978 2981 2986 2990 2993 2996 3001 3005 3008 3011 3014 3017 3020 3024 3027 3031 3034 3038 3043 3046 3050 3054 3057 3061 3065 3069 3073 3075 3078 3080 3082 3085 3087 3090 3092 3094 3097 3099 3101 3103 3105 3108 3110
2860 2861 2861 2861 2861 2860 2859 2858 2858 2858 2857 2857 2857 2857 2858 2860 2860 2861 2863 2867 2869 2873 2877 2880 2884 2892 2899 2903 2907 2912 2917 2922 2926 2930 2935 2941 2947 2952 2956 2960 2964 2968 2973 2976 2981 2986 2990 2993 2996 2999 3003 3006 3010 3013 3016 3020 3023 3027 3031 3035 3039 3043 3047 3051 3054 3057 3061 3064 3068 3071 3074 3076 3079 3082 3084 3087 3089 3092 3094 3096 3098 3100 3102 3104 3107
2850 2852 2852 2851 2852 2852 2852 2851 2851 2851 2850 2850 2850 2850 2852 2853 2854 2854 2856 2859 2863 2866 2870 2872 2876 2884 2892 2897 2901 2905 2910 2915 2920 2924 2929 2934 2940 2945 2949 2954 2959 2963 2967 2971 2977 2982 2986 2989 2992 2994 2998 3001 3005 3008 3012 3016 3019 3023 3028 3032 3036 3040 3044 3047 3050 3054 3056 3060 3063 3067 3069 3072 3075 3078 3081 3084 3086 3088 3090 3093 3095 3097 3099 3101 3104
2840 2841 2842 2842 2842 2843 2843 2843 2843 2843 2843 2843 2843 2844 2845 2847 2847 2848 2849 2852 2856 2859 2863 2865 2868 2875 2884 2889 2893 2899 2904 2909 2914 2919 2924 2928 2934 2939 2943 2948 2953 2958 2962 2967 2972 2976 2981 2984 2988 2990 2993 2996 3000 3003 3007 3011 3015 3020 3024 3028 3032 3035 3039 3043 3047 3050 3053 3056 3060 3062 3065 3068 3072 3075 3078 3080 3082 3085 3087 3089 3092 3094 3096 3098 3101
2830 2831 2832 2832 2832 2833 2834 2834 2835 2836 2836 2836 2836 2838 2839 2841 2841 2841 2843 2845 2848 2851 2855 2859 2861 2866 2876 2882 2887 2892 2897 2903 2908 2913 2918 2923 2928 2934 2938 2943 2948 2952 2957 2963 2967 2971 2975 2980 2983 2987 2989 2992 2995 2998 3002 3006 3011 3016 3020 3024 3027 3031 3035 3039 3042 3046 3049 3052 3055 3058 3061 3064 3067 3070 3073 3076 3078 3081 3083 3086 3088 3091 3093 3095 3097
2822 2822 2823 2823 2822 2823 2825 2825 2826 2828 2829 2829 2829 2830 2832 2834 2834 2835 2836 2838 2841 2844 2848 2852 2855 2859 2867 2875 2881 2886 2892 2898 2902 2907 2912 2918 2923 2929 2934 2938 2942 2947 2953 2958 2962 2966 2971 2975 2979 2982 2985 2988 2991 2995 2999 3003 3007 3012 3016 3020 3024 3027 3031 3034 3038 3042 3045 3048 3051 3054 3057 3061 3063 3066 3069 3072 3074 3077 3080 3082 3084 3087 3089 3092 3094
2816 2816 2815 2815 2814 2814 2816 2817 2817 2819 2821 2822 2822 2823 2825 2827 2827 2828 2830 2832 2834 2837 2841 2845 2848 2852 2859 2868 2874 2880 2886 2892 2897 2902 2907 2913 2917 2922 2927 2932 2937 2942 2947 2952 2957 2961 2966 2971 2974 2977 2981 2985 2989 2992 2996 3000 3004 3008 3013 3017 3020 3023 3026 3030 3034 3038 3040 3043 3047 3050 3053 3056 3059 3062 3065 3067 3070 3072 3075 3078 3081 3084 3086 3089 3091
2811 2810 2809 2808 2807 2807 2807 2808 2808 2809 2812 2814 2814 2815 2817 2819 2821 2822 2824 2826 2828 2831 2834 2838 2841 2845 2852 2862 2869 2873 2879 2885 2891 2896 2901 2906 2911 2916 2922 2926 2931 2936 2941 2947 2952 2956 2961 2965 2968 2972 2977 2982 2986 2990 2993 2997 3001 3004 3009 3012 3015 3018 3022 3026 3029 3033 3036 3039 3043 3046 3049 3051 3054 3056 3059 3061 3063 3067 3071 3075 3078 3081 3084 3086 3087
2806 2804 2802 2801 2800 2799 2800 2800 2799 2800 2803 2805 2806 2807 2810 2812 2814 2816 2818 2820 2821 2824 2828 2831 2835 2838 2844 2854 2862 2867 2873 2879 2885 2890 2895 2899 2905 2911 2917 2922 2926 2931 2935 2941 2946 2951 2955 2959 2962 2966 2972 2977 2982 2986 2990 2993 2997 3000 3004 3007 3010 3014 3017 3021 3024 3028 3031 3035 3038 3041 3043 3046 3048 3051 3053 3056 3061 3066 3070 3072 3074 3077 3080 3082 3083
2799 2797 2795 2793 2791 2790 2790 2791 2791 2791 2794 2797 2798 2801 2804 2806 2807 2810 2812 2814 2815 2818 2821 2824 2828 2833 2838 2845 2854 2861 2866 2872 2879 2884 2889 2894 2900 2906 2912 2917 2922 2926 2930 2935 2940 2945 2949 2953 2956 2961 2967 2971 2976 2980 2984 2988 2992 2996 3000 3003 3006 3009 3012 3015 3019 3023 3027 3030 3033 3036 3038 3041 3045 3048 3052 3057 3061 3064 3066 3068 3070 3073 3074 3076 3078
2789 2787 2785 2783 2781 2780 2779 2780 2781 2782 2785 2788 2790 2794 2798 2800 2801 2804 2806 2808 2809 2811 2814 2817 2821 2827 2832 2839 2847 2853 2859 2866 2873 2879 2884 2889 2895 2901 2907 2912 2917 2921 2925 2930 2935 2939 2944 2947 2951 2956 2960 2965 2969 2973 2977 2982 2986 2991 2995 3000 3003 3006 3008 3011 3015 3019 3023 3026 3030 3033 3036 3039 3043 3047 3051 3054 3056 3059 3061 3064 3066 3068 3069 3071 3074
2780 2777 2775 2773 2771 2769 2769 2770 2771 2773 2776 2780 2783 2787 2791 2794 2796 2798 2800 2802 2803 2805 2808 2811 2815 2821 2827 2834 2842 2847 2854 2861 2868 2874 2879 2884 2890 2896 2901 2906 2911 2916 2920 2925 2930 2935 2939 2943 2947 2951 2955 2959 2963 2967 2971 2976 2981 2985 2990 2994 2999 3002 3005 3008 3012 3016 3019 3023 3026 3029 3032 3036 3040 3043 3046 3049 3052 3055 3057 3059 3061 3063 3066 3068 3071
2773 2769 2766 2763 2761 2759 2759 2760 2761 2764 2767 2771 2775 2779 2784 2787 2789 2791 2794 2796 2798 2800 2804 2807 2810 2815 2821 2828 2837 2843 2849 2857 2864 2869 2874 2879 2885 2890 2895 2900 2905 2911 2915 2920 2925 2930 2935 2939 2942 2946 2950 2954 2958 2962 2966 2970 2975 2980 2984 2989 2993 2996 3000 3004 3009 3013 3017 3020 3022 3025 3029 3033 3036 3039 3043 3046 3048 3050 3051 3053 3056 3059 3062 3064 3067
2767 2763 2759 2756 2753 2750 2750 2750 2752 2755 2759 2764 2768 2772 2777 2780 2782 2784 2787 2790 2792 2796 2800 2802 2805 2810 2816 2824 2832 2838 2844 2851 2858 2865 2870 2875 2880 2885 2889 2894 2900 2905 2910 2915 2920 2925 2930 2934 2938 2942 2946 2950 2953 2957 2961 2966 2970 2974 2977 2982 2986 2990 2994 2998 3002 3007 3011 3014 3018 3023 3028 3030 3033 3037 3040 3042 3043 3045 3047 3050 3053 3055 3058 3060 3063
2760 2757 2752 2749 2746 2743 2742 2742 2744 2747 2752 2756 2761 2766 2770 2773 2776 2778 2781 2784 2788 2791 2795 2797 2800 2805 2811 2820 2828 2833 2839 2846 2853 2860 2866 2871 2876 2881 2885 2889 2894 2899 2905 2910 2915 2920 2925 2930 2934 2939 2943 2946 2950 2953 2957 2961 2965 2969 2972 2976 2980 2984 2988 2992 2996 3000 3004 3008 3013 3019 3024 3027 3031 3034 3036 3037 3039 3042 3045 3047 3050 3052 3053 3055 3057
2753 2750 2745 2741 2738 2736 2735 2735 2736 2739 2744 2749 2754 2760 2764 2767 2770 2773 2775 2779 2783 2787 2790 2793 2796 2801 2808 2816 2823 2829 2836 2842 2848 2855 2861 2866 2871 2876 2880 2884 2888 2893 2899 2904 2909 2914 2920 2925 2930 2934 2938 2943 2946 2950 2954 2958 2961 2964 2967 2971 2976 2979 2983 2987 2992 2997 3000 3004 3009 3014 3018 3022 3025 3027 3030 3033 3035 3037 3039 3041 3043 3045 3048 3050 3052
2747 2743 2738 2734 2731 2729 2727 2727 2729 2732 2737 2743 2749 2754 2758 2761 2764 2768 2770 2774 2778 2783 2786 2789 2793 2798 2804 2811 2818 2825 2831 2838 2844 2850 2856 2862 2866 2869 2873 2878 2882 2887 2893 2898 2904 2909 2914 2919 2924 2929 2933 2938 2942 2946 2950 2953 2956 2959 2962 2966 2971 2974 2978 2983 2987 2991 2995 3000 3005 3008 3011 3014 3016 3019 3023 3026 3029 3031 3033 3034 3036 3040 3043 3045 3047
2741 2737 2733 2729 2725 2722 2721 2721 2723 2726 2731 2738 2745 2750 2753 2756 2760 2763 2765 2769 2774 2779 2782 2786 2790 2795 2800 2807 2814 2821 2827 2833 2839 2845 2851 2856 2860 2864 2868 2872 2877 2881 2886 2892 2898 2904 2909 2913 2918 2923 2927 2933 2938 2943 2946 2948 2951 2954 2957 2961 2965 2968 2972 2977 2981 2985 2990 2994 2997 3000 3003 3007 3009 3013 3016 3019 3022 3024 3027 3030 3034 3036 3037 3039 3043
2735 2732 2728 2724 2719 2717 2715 2716 2718 2722 2727 2734 2741 2746 2748 2751 2755 2758 2761 2765 2770 2775 2779 2783 2787 2792 2797 2803 2809 2816 2823 2828 2834 2840 2846 2851 2855 2859 2864 2867 2871 2875 2880 2886 2891 2897 2903 2908 2912 2917 2922 2928 2934 2937 2940 2943 2946 2949 2953 2956 2958 2961 2967 2973 2977 2981 2985 2988 2991 2994 2998 3000 3004 3007 3010 3013 3016 3019 3023 3027 3029 3031 3033 3036 3038
2730 2726 2723 2719 2715 2712 2711 2712 2714 2718 2724 2731 2737 2741 2744 2747 2751 2754 2757 2761 2765 2770 2775 2780 2784 2789 2794 2799 2804 2811 2817 2823 2829 2835 2841 2846 2851 2855 2859 2862 2865 2869 2874 2879 2884 2890 2895 2901 2906 2911 2916 2922 2928 2931 2934 2938 2942 2946 2948 2950 2952 2957 2964 2970 2974 2977 2980 2983 2987 2990 2993 2995 2998 3001 3004 3007 3010 3014 3017 3020 3022 3025 3029 3031 3032
2725 2722 2719 2715 2711 2709 2709 2710 2712 2716 2721 2728 2734 2738 2741 2745 2748 2751 2754 2758 2762 2766 2771 2776 2781 2786 2792 2797 2802 2807 2812 2818 2825 2831 2837 2842 2846 2850 2853 2856 2860 2864 2868 2873 2878 2883 2888 2894 2900 2906 2910 2916 2922 2925 2928 2933 2937 2941 2943 2945 2950 2957 2963 2966 2969 2972 2974 2977 2980 2983 2986 2989 2992 2996 2999 3002 3005 3009 3011 3014 3017 3021 3024 3024 3027
2722 2719 2716 2712 2709 2708 2708 2709 2711 2715 2721 2726 2732 2736 2739 2742 2745 2748 2752 2755 2759 2763 2767 2772 2777 2783 2788 2794 2799 2805 2810 2815 2820 2825 2831 2837 2841 2845 2848 2852 2856 2860 2863 2867 2871 2877 2882 2888 2894 2901 2906 2912 2917 2920 2923 2928 2932 2935 2939 2943 2949 2954 2958 2960 2963 2965 2967 2969 2971 2975 2978 2982 2985 2989 2993 2997 3001 3005 3008 3010 3013 3016 3017 3019 3022
2720 2717 2714 2711 2709 2709 2709 2710 2713 2717 2721 2726 2731 2734 2737 2739 2742 2745 2749 2752 2756 2759 2764 2768 2773 2778 2783 2789 2794 2800 2806 2811 2816 2821 2827 2832 2836 2840 2844 2848 2851 2855 2858 2861 2865 2871 2877 2883 2889 2896 2902 2907 2912 2917 2919 2923 2927 2930 2935 2940 2944 2948 2951 2953 2955 2957 2959 2962 2964 2967 2970 2975 2979 2984 2988 2993 2997 3002 3005 3006 3008 3010 3011 3013 3017
2718 2717 2714 2712 2711 2711 2712 2713 2715 2718 2722 2725 2729 2732 2735 2737 2739 2742 2746 2749 2752 2755 2759 2764 2768 2773 2778 2783 2788 2794 2800 2806 2812 2817 2822 2827 2831 2835 2839 2843 2847 2850 2853 2856 2860 2865 2871 2877 2884 2891 2897 2902 2907 2913 2915 2918 2922 2926 2930 2935 2939 2941 2942 2944 2946 2949 2952 2955 2957 2959 2964 2969 2974 2979 2985 2990 2994 2997 2998 2999 3001 3004 3006 3009 3012
2718 2717 2716 2714 2714 2714 2715 2716 2718 2720 2723 2726 2728 2731 2734 2735 2737 2740 2743 2746 2748 2752 2755 2760 2764 2768 2773 2777 2782 2788 2793 2800 2806 2812 2817 2822 2826 2830 2834 2838 2842 2845 2848 2851 2855 2860 2865 2872 2879 2885 2891 2896 2901 2907 2910 2913 2916 2921 2925 2929 2932 2933 2934 2936 2939 2942 2944 2947 2950 2954 2958 2964 2971 2977 2982 2986 2987 2988 2989 2992 2995 2998 3001 3003 3006
2718 2718 2718 2717 2717 2718 2718 2720 2721 2722 2724 2727 2729 2731 2733 2734 2736 2739 2741 2743 2745 2749 2752 2756 2760 2764 2768 2773 2777 2782 2788 2793 2799 2806 2812 2817 2821 2824 2829 2833 2836 2840 2843 2846 2851 2855 2860 2867 2874 2880 2885 2890 2895 2899 2904 2907 2911 2916 2920 2922 2924 2926 2928 2930 2933 2936 2938 2941 2945 2949 2954 2961 2967 2971 2973 2975 2976 2978 2983 2987 2990 2992 2995 2997 3000
2719 2719 2719 2719 2719 2720 2721 2722 2723 2724 2726 2727 2729 2730 2732 2734 2735 2737 2739 2741 2743 2746 2749 2752 2756 2760 2764 2768 2773 2778 2783 2788 2793 2799 2805 2810 2815 2819 2822 2826 2830 2833 2836 2840 2844 2849 2854 2861 2868 2874 2880 2884 2889 2894 2898 2902 2905 2909 2911 2913 2915 2917 2921 2924 2927 2930 2933 2937 2940 2945 2951 2955 2958 2960 2962 2965 2969 2974 2978 2981 2984 2986 2989 2992 2994
2721 2720 2720 2720 2721 2722 2723 2724 2724 2726 2727 2728 2729 2729 2731 2732 2734 2735 2737 2739 2741 2744 2747 2750 2753 2757 2761 2765 2769 2773 2778 2782 2787 2793 2799 2805 2810 2813 2817 2820 2824 2827 2830 2834 2838 2843 2849 2855 2862 2867 2872 2876 2881 2885 2888 2892 2895 2899 2901 2904 2906 2909 2913 2918 2922 2924 2927 2931 2935 2939 2943 2946 2948 2951 2955 2959 2963 2967 2971 2975 2978 2981 2984 2986 2987
2725 2722 2721 2721 2721 2722 2724 2724 2725 2726 2727 2728 2728 2729 2730 2731 2732 2734 2736 2738 2740 2743 2746 2749 2752 2755 2759 2762 2765 2769 2773 2777 2783 2789 2795 2801 2805 2809 2813 2816 2819 2823 2826 2829 2833 2838 2843 2849 2854 2858 2863 2867 2871 2874 2877 2881 2885 2889 2892 2896 2899 2902 2905 2910 2914 2917 2920 2924 2928 2931 2935 2938 2941 2946 2949 2952 2955 2960 2965 2969 2972 2975 2977 2979 2980
2728 2725 2723 2722 2722 2722 2723 2723 2724 2725 2726 2726 2727 2728 2729 2730 2731 2733 2735 2737 2738 2741 2744 2747 2750 2754 2757 2760 2763 2766 2769 2774 2780 2786 2791 2797 2801 2805 2809 2812 2816 2819 2822 2825 2829 2833 2838 2842 2847 2851 2855 2860 2864 2867 2870 2873 2877 2881 2885 2888 2892 2895 2899 2903 2908 2912 2915 2917 2921 2925 2929 2933 2936 2939 2942 2945 2948 2953 2958 2963 2966 2969 2970 2971 2973
2730 2727 2724 2723 2722 2722 2722 2723 2723 2724 2725 2725 2726 2727 2728 2729 2730 2731 2732 2734 2736 2738 2741 2744 2747 2751 2754 2758 2761 2764 2767 2772 2777 2782 2787 2791 2796 2800 2804 2808 2811 2815 2817 2821 2824 2828 2832 2836 2841 2846 2851 2855 2858 2862 2865 2869 2872 2875 2878 2882 2885 2889 2892 2896 2900 2905 2908 2911 2915 2920 2924 2927 2930 2933 2936 2938 2941 2946 2951 2955 2958 2961 2963 2965 2968
2731 2729 2726 2724 2722 2721 2721 2722 2723 2723 2724 2724 2725 2726 2726 2727 2728 2729 2730 2731 2733 2735 2738 2740 2743 2747 2750 2754 2758 2761 2765 2769 2773 2777 2781 2786 2791 2796 2801 2804 2808 2811 2814 2817 2820 2823 2827 2831 2835 2841 2845 2849 2853 2856 2859 2863 2866 2869 2871 2875 2878 2881 2885 2890 2894 2898 2901 2905 2909 2913 2916 2920 2923 2926 2929 2931 2935 2939 2943 2947 2951 2954 2957 2959 2961
2731 2729 2727 2725 2723 2721 2720 2720 2721 2722 2723 2723 2724 2724 2724 2724 2725 2726 2727 2728 2730 2732 2734 2737 2740 2744 2747 2751 2755 2758 2761 2765 2770 2774 2779 2783 2788 2792 2796 2800 2804 2807 2810 2813 2816 2819 2823 2827 2831 2836 2840 2843 2847 2850 2853 2856 2859 2863 2866 2870 2873 2876 2881 2885 2889 2892 2895 2899 2902 2905 2908 2912 2915 2919 2921 2923 2927 2931 2935 2940 2945 2948 2950 2952 2954
2732 2729 2726 2724 2722 2721 2719 2719 2719 2720 2721 2721 2722 2722 2722 2722 2722 2723 2724 2725 2727 2729 2731 2733 2737 2740 2743 2747 2751 2755 2759 2763 2767 2772 2776 2781 2784 2788 2792 2795 2798 2801 2804 2807 2810 2814 2818 2821 2825 2830 2834 2837 2841 2843 2846 2849 2853 2857 2861 2864 2867 2871 2875 2879 2882 2885 2888 2891 2894 2896 2899 2903 2907 2910 2913 2915 2919 2924 2929 2933 2937 2940 2942 2945 2948
2734 2730 2727 2725 2722 2720 2719 2718 2718 2718 2719 2719 2719 2719 2719 2719 2719 2720 2721 2722 2724 2725 2726 2729 2732 2736 2739 2742 2746 2750 2754 2759 2764 2768 2772 2776 2780 2783 2786 2789 2791 2794 2797 2800 2804 2808 2812 2815 2819 2823 2827 2831 2834 2837 2840 2844 2848 2852 2855 2858 2861 2864 2869 2872 2875 2878 2880 2883 2886 2888 2891 2895 2899 2901 2904 2908 2912 2917 2920 2924 2928 2931 2935 2939 2942
2735 2731 2728 2725 2723 2720 2718 2717 2716 2716 2716 2716 2716 2716 2716 2716 2716 2717 2717 2718 2720 2721 2723 2724 2727 2730 2734 2738 2741 2745 2749 2755 2759 2764 2768 2771 2775 2778 2780 2782 2785 2788 2791 2795 2799 2803 2807 2811 2814 2818 2821 2825 2828 2832 2835 2838 2842 2846 2848 2851 2855 2859 2862 2865 2868 2870 2873 2875 2878 2881 2884 2887 2891 2894 2896 2901 2906 2910 2914 2918 2922 2926 2930 2933 2936
2738 2732 2729 2726 2723 2721 2719 2717 2715 2714 2714 2713 2713 2713 2713 2713 2713 2714 2714 2715 2717 2718 2719 2721 2723 2726 2730 2733 2737 2741 2745 2750 2754 2759 2763 2766 2769 2772 2775 2778 2781 2784 2788 2792 2796 2799 2802 2806 2809 2812 2816 2819 2822 2826 2829 2833 2836 2839 2842 2845 2848 2852 2855 2858 2861 2863 2866 2868 2871 2873 2876 2880 2884 2887 2890 2895 2899 2904 2908 2912 2915 2919 2923 2926 2929
2742 2736 2732 2728 2725 2723 2720 2718 2717 2715 2713 2712 2712 2711 2711 2711 2711 2712 2712 2713 2714 2715 2716 2718 2721 2724 2727 2730 2732 2736 2739 2743 2747 2751 2754 2758 2761 2765 2769 2772 2776 2780 2783 2787 2791 2794 2797 2800 2803 2806 2809 2813 2816 2819 2823 2826 2830 2832 2835 2838 2842 2845 2848 2851 2854 2856 2858 2860 2863 2866 2869 2873 2877 2881 2885 2889 2893 2897 2900 2904 2907 2911 2914 2917 2919
2749 2743 2738 2733 2729 2725 2722 2719 2718 2716 2715 2713 2712 2711 2711 2711 2711 2711 2712 2712 2713 2714 2715 2717 2720 2723 2725 2728 2730 2732 2734 2737 2740 2743 2746 2749 2752 2756 2760 2765 2769 2772 2776 2780 2784 2788 2791 2793 2797 2800 2802 2805 2809 2812 2815 2818 2822 2825 2828 2831 2834 2837 2840 2842 2845 2847 2850 2852 2855 2859 2862 2866 2870 2875 2879 2882 2886 2890 2893 2896 2899 2903 2906 2908 2911
2753 2748 2743 2738 2733 2729 2725 2722 2720 2718 2717 2716 2714 2713 2713 2712 2712 2712 2712 2712 2713 2714 2715 2717 2720 2722 2724 2726 2728 2730 2732 2733 2735 2737 2740 2743 2746 2749 2753 2757 2760 2764 2768 2772 2776 2780 2784 2786 2790 2792 2795 2798 2801 2804 2807 2811 2815 2818 2821 2824 2827 2829 2832 2835 2837 2839 2842 2846 2850 2853 2856 2860 2864 2868 2872 2876 2879 2882 2885 2889 2892 2895 2899 2902 2904
2757 2752 2748 2744 2739 2734 2731 2727 2723 2721 2719 2718 2717 2716 2715 2715 2714 2714 2714 2714 2714 2715 2716 2718 2720 2722 2723 2725 2727 2729 2731 2732 2733 2735 2737 2740 2743 2746 2749 2752 2756 2759 2762 2766 2769 2772 2775 2778 2782 2785 2788 2791 2794 2797 2801 2804 2807 2810 2813 2816 2819 2821 2825 2828 2831 2833 2837 2841 2844 2848 2851 2855 2858 2861 2865 2869 2872 2875 2878 2882 2885 2888 2891 2893 2895
2761 2757 2753 2749 2745 2741 2737 2732 2728 2726 2724 2721 2719 2718 2717 2717 2717 2717 2717 2716 2716 2717 2718 2719 2720 2722 2723 2725 2726 2727 2729 2731 2733 2734 2736 2738 2740 2743 2745 2748 2751 2755 2758 2761 2764 2767 2769 2772 2775 2778 2781 2784 2788 2791 2794 2797 2800 2803 2806 2809 2812 2815 2818 2822 2826 2829 2832 2835 2839 2842 2846 2849 2851 2854 2857 2862 2865 2868 2871 2874 2876 2879 2881 2883 2885
2765 2761 2757 2753 2750 2746 2743 2739 2736 2733 2729 2726 2723 2722 2720 2720 2719 2719 2719 2719 2719 2719 2720 2721 2721 2723 2724 2725 2726 2726 2727 2729 2731 2733 2735 2737 2739 2741 2743 2745 2747 2750 2753 2756 2759 2762 2764 2767 2770 2773 2776 2778 2781 2784 2787 2790 2792 2795 2798 2801 2805 2808 2812 2816 2820 2824 2827 2830 2832 2836 2839 2841 2844 2846 2849 2852 2856 2859 2862 2864 2866 2868 2870 2872 2875
2768 2765 2762 2758 2755 2751 2748 2746 2743 2739 2735 2732 2730 2728 2726 2725 2723 2722 2722 2721 2721 2721 2721 2721 2722 2723 2724 2725 2726 2727 2727 2729 2730 2732 2734 2736 2737 2739 2741 2743 2744 2747 2749 2751 2753 2756 2758 2761 2764 2766 2769 2771 2774 2776 2779 2782 2785 2788 2791 2795 2798 2801 2804 2808 2812 2816 2819 2821 2823 2826 2829 2831 2834 2836 2838 2841 2845 2848 2851 2854 2856 2859 2862 2864 2866
2771 2768 2765 2762 2759 2756 2753 2750 2748 2745 2742 2740 2737 2735 2733 2731 2729 2727 2727 2726 2725 2725 2725 2724 2724 2724 2724 2725 2725 2726 2727 2728 2730 2731 2733 2735 2736 2738 2740 2741 2743 2744 2745 2747 2749 2751 2753 2755 2757 2760 2762 2764 2767 2769 2772 2775 2778 2782 2785 2788 2791 2794 2796 2800 2803 2806 2809 2812 2814 2816 2818 2821 2824 2827 2830 2833 2836 2840 2843 2847 2849 2852 2855 2856 2858
2773 2771 2768 2765 2763 2760 2757 2755 2752 2750 2748 2746 2744 2741 2740 2738 2736 2734 2732 2731 2730 2730 2729 2729 2728 2728 2728 2727 2727 2727 2728 2728 2729 2730 2732 2733 2735 2737 2738 2739 2741 2742 2743 2745 2746 2747 2749 2751 2753 2755 2757 2759 2761 2763 2766 2769 2772 2775 2778 2781 2784 2787 2789 2792 2795 2798 2801 2804 2807 2809 2811 2814 2817 2820 2823 2826 2829 2832 2835 2838 2841 2843 2845 2846 2848
2774 2772 2770 2768 2765 2763 2761 2759 2756 2754 2752 2751 2749 2747 2746 2744 2742 2741 2739 2738 2736 2735 2734 2734 2733 2732 2732 2731 2731 2731 2730 2730 2731 2731 2732 2733 2735 2736 2737 2738 2740 2741 2742 2743 2745 2746 2747 2749 2750 2752 2754 2755 2757 2760 2762 2765 2768 2770 2773 2776 2779 2781 2784 2786 2789 2791 2794 2797 2800 2803 2805 2807 2810 2813 2816 2818 2821 2823 2826 2828 2830 2833 2835 2836 2838
2775 2774 2772 2770 2768 2766 2764 2762 2760 2758 2756 2755 2753 2752 2750 2749 2747 2746 2744 2743 2742 2741 2739 2739 2738 2737 2736 2735 2735 2734 2734 2734 2734 2735 2735 2735 2736 2737 2738 2739 2740 2741 2742 2743 2744 2745 2746 2748 2749 2751 2752 2753 2755 2757 2759 2762 2764 2766 2769 2772 2774 2776 2779 2781 2783 2786 2788 2791 2793 2796 2798 2800 2802 2805 2808 2810 2812 2814 2817 2819 2821 2823 2825 2826 2828
2776 2774 2773 2771 2769 2767 2765 2764 2762 2760 2759 2757 2756 2755 2753 2752 2751 2749 2748 2746 2745 2743 2742 2741 2741 2740 2739 2739 2739 2738 2738 2738 2738 2738 2738 2738 2739 2739 2740 2740 2741 2742 2742 2743 2744 2745 2746 2747 2748 2750 2751 2752 2754 2755 2757 2759 2761 2763 2765 2768 2770 2772 2775 2777 2779 2781 2783 2785 2787 2789 2791 2793 2796 2798 2801 2803 2805 2807 2809 2811 2813 2815 2817 2819 2820
2776 2775 2773 2772 2770 2769 2767 2765 2763 2762 2760 2759 2758 2756 2755 2753 2752 2751 2749 2747 2746 2745 2743 2743 2742 2741 2741 2741 2741 2741 2741 2741 2741 2741 2741 2741 2741 2742 2742 2742 2743 2743 2743 2744 2745 2745 2746 2747 2748 2749 2750 2752 2753 2754 2755 2757 2759 2761 2763 2765 2767 2769 2772 2773 2775 2777 2779 2781 2782 2784 2786 2788 2790 2792 2794 2796 2798 2800 2802 2804 2806 2808 2809 2811 2813
2777 2775 2773 2772 2770 2769 2768 2767 2765 2763 2762 2760 2758 2757 2756 2754 2753 2751 2750 2748 2747 2746 2745 2744 2744 2743 2743 2742 2742 2742 2742 2742 2742 2742 2743 2743 2743 2743 2743 2744 2744 2744 2745 2745 2745 2746 2747 2747 2748 2749 2750 2751 2752 2753 2754 2756 2757 2759 2761 2763 2765 2767 2769 2770 2772 2774 2776 2777 2779 2780 2781 2783 2785 2786 2788 2790 2792 2794 2795 2797 2799 2800 2802 2803 2805